Weather History for Oakdale, LA

Change the Weather History Date:

Friday, August 30, 2013

  Actual Average (KPOE) Record (KPOE)
Temperature  
Mean Temperature 78 °F -  
Max Temperature 93 °F 88 °F 102 °F (2011)
Min Temperature 64 °F 70 °F 69 °F (1996)
Cooling Degree Days 14    
Growing Degree Days 28 (Base 50)    
Moisture  
Dew Point 68 °F    
Average Humidity 72    
Maximum Humidity 96    
Minimum Humidity 41    
Precipitation  
Precipitation 0.00 in - - ()
Sea Level Pressure  
Sea Level Pressure 29.98 in    
Wind  
Wind Speed 1 mph (SE)    
Max Wind Speed 8 mph    
Max Gust Speed -    
Visibility 7 miles    
Events      
Averages and records for this station are not official NWS values.
T = Trace of Precipitation, MM = Missing Value Source: NWS Daily Summary

Daily Weather History Graph

Daily Weather History Graph

Search for Another Location

Airport:

Trip Planner

Search our weather history database for the weather conditions in past years. The results will help you decide how hot, cold, wet, or windy it might be!

Date:

Astronomy

Aug. 30, 2013 Rise Set
Actual Time 6:46 AM CDT 7:35 PM CDT
Civil Twilight 6:21 AM CDT 8:00 PM CDT
Nautical Twilight 5:52 AM CDT 8:29 PM CDT
Astronomical Twilight 5:22 AM CDT 8:59 PM CDT
Moon 1:37 AM CDT (8/30) 3:40 PM CDT (8/30)
Length of Visible Light 13h 38m
Length of Day
12h 49m
Waning Crescent, 29% of the Moon is Illuminated
Aug 30
Waning Crescent
Sep 5
New
Sep 12
First Quarter
Sep 19
Full
Sep 26
Last Quarter

Hourly Weather History & Observations

Time (CDT) Temp. Heat Index Dew Point Humidity Pressure Visibility Wind Dir Wind Speed Gust Speed Precip Events Conditions
12:15 AM 72.5 °F - 69.8 °F 91% 30.01 in 7.0 mi Calm Calm - N/A   Clear
12:35 AM 71.1 °F - 69.1 °F 93% 30.01 in 5.0 mi Calm Calm - N/A   Clear
12:55 AM 70.3 °F - 68.5 °F 94% 30.01 in 4.0 mi Calm Calm - N/A   Clear
1:15 AM 69.8 °F - 68.0 °F 94% 30.01 in 3.0 mi Calm Calm - N/A   Clear
1:35 AM 69.8 °F - 68.0 °F 94% 30.01 in 3.0 mi Calm Calm - N/A   Clear
1:55 AM 69.3 °F - 67.8 °F 95% 30.01 in 3.0 mi Calm Calm - N/A   Clear
2:15 AM 68.9 °F - 67.5 °F 95% 30.01 in 2.5 mi Calm Calm - N/A   Clear
2:35 AM 68.0 °F - 66.6 °F 95% 30.01 in 2.5 mi Calm Calm - N/A   Clear
2:55 AM 67.6 °F - 66.2 °F 95% 30.00 in 3.0 mi Calm Calm - N/A   Clear
3:15 AM 67.6 °F - 66.2 °F 95% 30.01 in 2.5 mi Calm Calm - N/A   Clear
3:35 AM 67.5 °F - 66.2 °F 96% 30.01 in 2.5 mi Calm Calm - N/A   Clear
3:55 AM 67.1 °F - 65.7 °F 95% 30.01 in 2.5 mi Calm Calm - N/A   Clear
4:15 AM 66.7 °F - 65.3 °F 95% 30.01 in 2.5 mi Calm Calm - N/A   Clear
4:35 AM 66.6 °F - 65.1 °F 95% 30.01 in 3.0 mi Calm Calm - N/A   Clear
4:55 AM 66.2 °F - 64.8 °F 95% 30.01 in 1.0 mi Calm Calm - N/A   Mostly Cloudy
5:15 AM 66.0 °F - 64.4 °F 94% 30.01 in 2.5 mi Calm Calm - N/A   Mostly Cloudy
5:35 AM 65.3 °F - 63.9 °F 95% 30.01 in 3.0 mi Calm Calm - N/A   Clear
5:55 AM 65.8 °F - 64.4 °F 95% 30.01 in 3.0 mi Calm Calm - N/A   Clear
6:15 AM 65.5 °F - 64.2 °F 96% 30.01 in 3.0 mi Calm Calm - N/A   Clear
6:35 AM 65.3 °F - 63.7 °F 94% 30.02 in 2.0 mi Calm Calm - N/A   Clear
6:55 AM 64.9 °F - 63.5 °F 95% 30.03 in 2.0 mi Calm Calm - N/A   Mostly Cloudy
7:15 AM 65.7 °F - 64.4 °F 96% 30.03 in 1.0 mi Calm Calm - N/A   Overcast
7:35 AM 67.1 °F - 65.7 °F 95% 30.04 in 3.0 mi Calm Calm - N/A   Overcast
7:55 AM 69.6 °F - 68.0 °F 95% 30.04 in 2.5 mi Calm Calm - N/A   Overcast
8:55 AM 78.3 °F - 72.0 °F 81% 30.04 in 10.0 mi Calm Calm - N/A   Mostly Cloudy
9:15 AM 81.0 °F 85.4 °F 72.3 °F 75% 30.04 in 10.0 mi WNW 3.5 mph - N/A   Scattered Clouds
9:35 AM 82.0 °F 87.2 °F 72.5 °F 73% 30.05 in 10.0 mi WNW 4.6 mph - N/A   Clear
9:55 AM 83.8 °F 88.9 °F 71.6 °F 66% 30.05 in 10.0 mi WSW 3.5 mph - N/A   Clear
10:15 AM 84.9 °F 89.4 °F 70.3 °F 61% 30.05 in 10.0 mi Calm Calm - N/A   Clear
10:35 AM 84.2 °F 88.7 °F 70.3 °F 63% 30.04 in 10.0 mi Calm Calm - N/A   Scattered Clouds
10:55 AM 86.4 °F 90.7 °F 69.6 °F 57% 30.03 in 10.0 mi Calm Calm - N/A   Mostly Cloudy
11:15 AM 87.3 °F 91.2 °F 68.7 °F 54% 30.03 in 10.0 mi Calm Calm - N/A   Scattered Clouds
11:35 AM 87.1 °F 91.3 °F 69.3 °F 55% 30.03 in 10.0 mi Calm Calm - N/A   Scattered Clouds
11:55 AM 88.0 °F 92.1 °F 69.1 °F 53% 30.02 in 10.0 mi Calm Calm - N/A   Clear
12:15 PM 86.5 °F 90.3 °F 68.5 °F 55% 30.02 in 10.0 mi Calm Calm - N/A   Clear
12:35 PM 88.2 °F 92.9 °F 69.6 °F 54% 30.01 in 10.0 mi ESE 4.6 mph - N/A   Clear
12:55 PM 90.7 °F 95.0 °F 68.7 °F 48% 30.00 in 10.0 mi SE 3.5 mph - N/A   Scattered Clouds
1:15 PM 91.2 °F 95.0 °F 67.8 °F 46% 29.99 in 10.0 mi SSE 4.6 mph - N/A   Mostly Cloudy
1:35 PM 90.7 °F 94.1 °F 67.1 °F 46% 29.98 in 10.0 mi SE 5.8 mph - N/A   Overcast
1:55 PM 91.8 °F 95.5 °F 67.5 °F 45% 29.98 in 10.0 mi ESE 4.6 mph - N/A   Mostly Cloudy
2:15 PM 91.6 °F 94.8 °F 66.6 °F 44% 29.97 in 10.0 mi SSW 3.5 mph - N/A   Mostly Cloudy
2:35 PM 92.5 °F 95.4 °F 66.4 °F 42% 29.96 in 10.0 mi East 8.1 mph - N/A   Scattered Clouds
2:55 PM 93.2 °F 96.2 °F 66.6 °F 41% 29.96 in 10.0 mi Calm Calm - N/A   Mostly Cloudy
3:15 PM 93.9 °F 97.5 °F 67.1 °F 41% 29.95 in 10.0 mi ESE 6.9 mph - N/A   Mostly Cloudy
3:35 PM 93.2 °F 96.2 °F 66.2 °F 41% 29.94 in 10.0 mi Calm Calm - N/A   Mostly Cloudy
3:55 PM 92.8 °F 95.6 °F 65.8 °F 41% 29.93 in 10.0 mi Calm Calm - N/A   Mostly Cloudy
4:15 PM 93.0 °F 95.9 °F 66.2 °F 41% 29.93 in 10.0 mi SE 4.6 mph - N/A   Mostly Cloudy
4:35 PM 93.6 °F 96.9 °F 66.4 °F 41% 29.92 in 10.0 mi East 6.9 mph - N/A   Scattered Clouds
4:55 PM 92.1 °F 94.8 °F 66.2 °F 42% 29.91 in 10.0 mi SE 5.8 mph - N/A   Scattered Clouds
5:15 PM 92.7 °F 95.8 °F 66.2 °F 42% 29.91 in 10.0 mi East 4.6 mph - N/A   Scattered Clouds
5:35 PM 92.3 °F 95.1 °F 66.4 °F 42% 29.91 in 10.0 mi Calm Calm - N/A   Clear
5:55 PM 91.8 °F 94.6 °F 66.0 °F 43% 29.91 in 10.0 mi SSE 4.6 mph - N/A   Clear
6:15 PM 90.7 °F 93.6 °F 66.6 °F 45% 29.91 in 10.0 mi Calm Calm - N/A   Clear
6:35 PM 90.0 °F 93.2 °F 67.1 °F 47% 29.91 in 10.0 mi SE 3.5 mph - N/A   Clear
6:55 PM 87.6 °F 90.4 °F 66.7 °F 50% 29.91 in 10.0 mi SE 3.5 mph - N/A   Clear
7:15 PM 85.6 °F 88.8 °F 67.6 °F 55% 29.92 in 10.0 mi Calm Calm - N/A   Clear
7:35 PM 80.6 °F 83.9 °F 70.0 °F 70% 29.92 in 10.0 mi Calm Calm - N/A   Clear
7:55 PM 78.1 °F - 69.4 °F 75% 29.93 in 10.0 mi Calm Calm - N/A   Clear
8:15 PM 77.2 °F - 69.4 °F 77% 29.93 in 10.0 mi Calm Calm - N/A   Clear
8:35 PM 75.9 °F - 69.4 °F 80% 29.93 in 10.0 mi Calm Calm - N/A   Clear
8:55 PM 75.6 °F - 68.5 °F 79% 29.93 in 10.0 mi Calm Calm - N/A   Clear
9:15 PM 74.1 °F - 68.9 °F 84% 29.94 in 10.0 mi Calm Calm - N/A   Clear
9:35 PM 72.9 °F - 68.9 °F 87% 29.94 in 10.0 mi SW 3.5 mph - N/A   Clear
9:55 PM 73.0 °F - 68.7 °F 86% 29.95 in 10.0 mi Calm Calm - N/A   Clear
10:15 PM 72.3 °F - 68.4 °F 87% 29.95 in 7.0 mi Calm Calm - N/A   Clear
10:35 PM 72.1 °F - 68.2 °F 87% 29.95 in 10.0 mi Calm Calm - N/A   Clear
10:55 PM 72.1 °F - 68.2 °F 87% 29.94 in 10.0 mi Calm Calm - N/A   Clear
11:15 PM 71.6 °F - 68.4 °F 89% 29.94 in 7.0 mi Calm Calm - N/A   Clear
11:35 PM 70.7 °F - 68.2 °F 92% 29.94 in 7.0 mi Calm Calm - N/A   Clear
11:55 PM 70.9 °F - 68.5 °F 92% 29.94 in 5.0 mi Calm Calm - N/A   Clear